Location: Ch�risy
(50.2331°N, 2.9131°E)
Time: 02:04:21
(UTC+00:00)

COSMO-SKYMED 1 - Pass Details

Date: 17 January 2021
Orbit: 621 x 623 km, 97.9° (Epoch: 28 February)

Event Time Altitude Azimuth Distance (km) Brightness Sun altitude
Exits shadow 17:01:00 - 27° (NNE) 2,701 5.4 -7.0°
Reaches altitude 10° 17:03:02 10° 41° (NE) 2,005 4.6 -7.3°
Maximum altitude 17:06:27 22° 92° (E) 1,373 3.8 -7.8°
Drops below altitude 10° 17:09:50 10° 144° (SE) 1,991 5.0 -8.3°
Sets 17:12:25 0° 159° (SSE) 2,891 6.0 -8.7°
